BEIDOU-2 G8

Last updated on Jan. 18, 2020, 4:38 a.m. UTC

1 44231U 19027A   20017.82496314 -.00000139  00000-0  00000+0 0  9993
2 44231   1.3278 294.8548 0001378  38.4482 160.4050  1.00271190  2600
UTC
Height (km)
Latitude
Longitude
Inclination
Orbital Period
UTC large
Height (km)
Speed (km/s)
/
Latitude / Longitude
Inclination (degrees)
Orbital Period (minutes)
Azimuth
Elevation
Range (km)
Doppler Factor
iOS Compass Heading
iOS Angle

Next 30 passes for location: Hong Kong

Rise time Rise Azimuth (degrees) Set time Set Azimuth (degrees) Duration Max altitude (degrees)

No matching passes for this satellites